Fremont, MI

4:18 PM EST on December 08, 2019 (GMT -0500)
Fremont

Weather History for KFFX - May, 2019

Change the Weather History Date:

Friday, May 31, 2019

  Actual Average (WUND) Record (WUND)
Temperature  
Mean Temperature 64 °F -  
Max Temperature 79 °F - - (-1)
Min Temperature 49 °F - - (-1)
Degree Days  
Heating Degree Days 1    
Growing Degree Days 14 (Base 50)    
Moisture  
Dew Point 54 °F    
Average Humidity 71    
Maximum Humidity 100    
Minimum Humidity 39    
Precipitation  
Precipitation 0.00 in - - ()
Sea Level Pressure  
Sea Level Pressure 29.81 in    
Wind  
Wind Speed 5 mph ()    
Max Wind Speed 22 mph    
Max Gust Speed 29 mph    
Visibility 8.7 miles    
Events      
Averages and records for this station are not official NWS values.
T = Trace of Precipitation, MM = Missing Value Source: Averaged Metar Reports

Daily Weather History Graph

Daily Weather History Graph

Search for Another Location

Airport or City:

Astronomy

May. 31, 2019 Rise Set
Actual Time 6:06 AM EDT 9:17 PM EDT
Civil Twilight 5:32 AM EDT 9:51 PM EDT
Nautical Twilight 4:47 AM EDT 10:36 PM EDT
Astronomical Twilight 3:53 AM EDT 11:30 PM EDT
Moon 4:47 AM EDT (5/31) 6:19 PM EDT (5/31)
Length of Visible Light 16h 19m
Length of Day
15h 10m
Waning Crescent, 9% of the Moon is Illuminated
May 31
Waning Crescent
Jun 3
New
Jun 10
First Quarter
Jun 17
Full
Jun 25
Last Quarter

Hourly Weather History & Observations

Time (EDT) Temp. Dew Point Humidity Pressure Visibility Wind Dir Wind Speed Gust Speed Precip Events Conditions
12:15 AM 52.3 °F 52.3 °F 100% 29.82 in 7.0 mi Calm Calm - N/A   Clear
12:35 AM 52.2 °F 52.2 °F 100% 29.82 in 7.0 mi Calm Calm - N/A   Clear
12:55 AM 53.4 °F 53.4 °F 100% 29.82 in 10.0 mi Calm Calm - N/A   Clear
12:56 AM 53.4 °F 53.4 °F 100% 29.82 in 10.0 mi Calm Calm - N/A   Clear
1:15 AM 53.1 °F 53.1 °F 100% 29.82 in 2.5 mi Calm Calm - N/A   Clear
1:16 AM 52.9 °F 52.9 °F 100% 29.82 in 1.5 mi Calm Calm - N/A   Mist
1:35 AM 51.1 °F 51.1 °F 100% 29.82 in 7.0 mi Calm Calm - N/A   Clear
1:55 AM 51.4 °F 51.4 °F 100% 29.82 in 7.0 mi Calm Calm - N/A   Clear
1:56 AM 51.4 °F 51.4 °F 100% 29.82 in 7.0 mi Calm Calm - N/A   Clear
2:15 AM 51.3 °F 51.3 °F 100% 29.82 in 5.0 mi Calm Calm - N/A   Clear
2:16 AM 51.3 °F 51.3 °F 100% 29.82 in 5.0 mi Calm Calm - N/A   Clear
2:35 AM 50.9 °F 50.9 °F 100% 29.83 in 7.0 mi Calm Calm - N/A   Clear
2:36 AM 50.9 °F 50.9 °F 100% 29.83 in 10.0 mi Calm Calm - N/A   Clear
2:55 AM 50.9 °F 50.9 °F 100% 29.82 in 2.0 mi East 3.5 mph - N/A   Clear
3:15 AM 50.0 °F 50.0 °F 100% 29.82 in 10.0 mi Calm Calm - N/A   Clear
3:35 AM 49.1 °F 49.1 °F 100% 29.83 in 10.0 mi Calm Calm - N/A   Clear
3:36 AM 49.1 °F 49.1 °F 100% 29.83 in 10.0 mi Calm Calm - N/A   Clear
3:55 AM 50.9 °F 50.9 °F 100% 29.83 in 7.0 mi Calm Calm - N/A   Clear
4:15 AM 50.2 °F 50.2 °F 100% 29.83 in 10.0 mi Calm Calm - N/A   Clear
4:16 AM 50.2 °F 50.2 °F 100% 29.83 in 10.0 mi Calm Calm - N/A   Clear
4:35 AM 50.7 °F 50.7 °F 100% 29.82 in 10.0 mi Calm Calm - N/A   Clear
4:36 AM 50.7 °F 50.7 °F 100% 29.83 in 10.0 mi Calm Calm - N/A   Clear
4:55 AM 49.1 °F 49.1 °F 100% 29.82 in 10.0 mi Calm Calm - N/A   Clear
4:56 AM 49.3 °F 49.3 °F 100% 29.83 in 10.0 mi Calm Calm - N/A   Clear
5:15 AM 49.5 °F 49.5 °F 100% 29.83 in 7.0 mi Calm Calm - N/A   Clear
5:35 AM 49.5 °F 49.5 °F 100% 29.83 in 7.0 mi Calm Calm - N/A   Clear
5:55 AM 49.5 °F 49.5 °F 100% 29.83 in 7.0 mi Calm Calm - N/A   Clear
5:56 AM 49.6 °F 49.6 °F 100% 29.83 in 7.0 mi Calm Calm - N/A   Clear
6:15 AM 49.5 °F 49.5 °F 100% 29.83 in 7.0 mi Calm Calm - N/A   Clear
6:16 AM 49.5 °F 49.5 °F 100% 29.83 in 7.0 mi Calm Calm - N/A   Clear
6:35 AM 50.0 °F 50.0 °F 100% 29.84 in 5.0 mi Calm Calm - N/A   Clear
6:55 AM 50.9 °F 50.9 °F 100% 29.85 in 7.0 mi Calm Calm - N/A   Clear
7:15 AM 50.9 °F 50.9 °F 100% 29.85 in 7.0 mi Calm Calm - N/A   Scattered Clouds
7:35 AM 52.3 °F 52.3 °F 100% 29.85 in 7.0 mi Calm Calm - N/A   Scattered Clouds
7:36 AM 52.3 °F 52.3 °F 100% 29.85 in 7.0 mi Calm Calm - N/A   Scattered Clouds
7:55 AM 52.9 °F 52.9 °F 100% 29.84 in 7.0 mi Calm Calm - N/A   Scattered Clouds
8:15 AM 53.8 °F 53.8 °F 100% 29.84 in 10.0 mi Calm Calm - N/A   Clear
8:35 AM 54.9 °F 54.7 °F 99% 29.85 in 10.0 mi SSW 3.5 mph - N/A   Clear
8:36 AM 55.0 °F 54.9 °F 99% 29.85 in 10.0 mi Calm Calm - N/A   Clear
8:55 AM 56.1 °F 55.4 °F 97% 29.84 in 10.0 mi South 4.6 mph - N/A   Clear
9:15 AM 59.9 °F 57.0 °F 90% 29.83 in 10.0 mi SSW 8.1 mph - N/A   Clear
9:35 AM 61.9 °F 54.9 °F 78% 29.84 in 10.0 mi WSW 5.8 mph - N/A   Clear
9:55 AM 63.0 °F 55.2 °F 76% 29.84 in 10.0 mi SW 8.1 mph - N/A   Clear
9:56 AM 63.1 °F 55.2 °F 75% 29.84 in 10.0 mi SW 8.1 mph - N/A   Clear
10:16 AM 65.7 °F 55.8 °F 70% 29.84 in 10.0 mi WSW 5.8 mph - N/A   Clear
10:35 AM 68.2 °F 55.4 °F 64% 29.84 in 10.0 mi SW 10.4 mph 18.4 mph N/A   Clear
10:36 AM 68.4 °F 55.8 °F 64% 29.84 in 10.0 mi SW 10.4 mph 18.4 mph N/A   Clear
11:15 AM 72.0 °F 54.7 °F 54% 29.83 in 10.0 mi WSW 12.7 mph 18.4 mph N/A   Clear
11:36 AM 73.8 °F 54.9 °F 52% 29.84 in 10.0 mi WSW 10.4 mph - N/A   Clear
11:55 AM 74.3 °F 54.3 °F 50% 29.84 in 10.0 mi WSW 12.7 mph 19.6 mph N/A   Clear
11:56 AM 74.5 °F 54.5 °F 50% 29.84 in 10.0 mi WSW 13.8 mph 19.6 mph N/A   Clear
12:16 PM 75.0 °F 55.0 °F 50% 29.84 in 10.0 mi SW 15.0 mph 20.7 mph N/A   Clear
12:35 PM 76.5 °F 56.5 °F 50% 29.85 in 10.0 mi WSW 10.4 mph - N/A   Clear
12:36 PM 76.6 °F 56.1 °F 49% 29.85 in 10.0 mi WSW 12.7 mph 17.3 mph N/A   Clear
12:56 PM 76.3 °F 55.4 °F 48% 29.84 in 10.0 mi WSW 15.0 mph - N/A   Clear
1:15 PM 77.4 °F 56.1 °F 48% 29.83 in 10.0 mi SW 13.8 mph 18.4 mph N/A   Clear
1:35 PM 78.3 °F 55.0 °F 45% 29.83 in 10.0 mi WSW 11.5 mph 18.4 mph N/A   Clear
1:37 PM 78.1 °F 55.4 °F 45% 29.83 in 7.0 mi WSW 12.7 mph 18.4 mph N/A   Clear
1:55 PM 78.3 °F 55.4 °F 45% 29.82 in 10.0 mi WSW 10.4 mph 21.9 mph N/A   Clear
2:15 PM 78.3 °F 55.0 °F 45% 29.81 in 10.0 mi WSW 15.0 mph 23.0 mph N/A   Clear
2:35 PM 79.0 °F 55.0 °F 44% 29.81 in 10.0 mi SW 16.1 mph 23.0 mph N/A   Clear
2:55 PM 78.6 °F 54.1 °F 43% 29.80 in 7.0 mi WSW 15.0 mph 26.5 mph N/A   Clear
2:57 PM 78.4 °F 54.5 °F 43% 29.80 in 5.0 mi SW 12.7 mph 26.5 mph N/A   Haze
3:15 PM 78.3 °F 53.4 °F 42% 29.80 in 7.0 mi SW 21.9 mph 27.6 mph N/A   Clear
3:16 PM 78.3 °F 53.4 °F 42% 29.80 in 7.0 mi SW 18.4 mph 27.6 mph N/A   Clear
3:35 PM 78.1 °F 52.5 °F 41% 29.80 in 10.0 mi WSW 18.4 mph 28.8 mph N/A   Clear
3:36 PM 78.1 °F 52.7 °F 41% 29.80 in 10.0 mi WSW 17.3 mph 28.8 mph N/A   Clear
3:55 PM 79.2 °F 52.9 °F 40% 29.79 in 10.0 mi WSW 19.6 mph 25.3 mph N/A   Clear
3:56 PM 79.2 °F 52.7 °F 40% 29.79 in 7.0 mi SW 18.4 mph 25.3 mph N/A   Clear
4:15 PM 78.6 °F 51.8 °F 39% 29.78 in 10.0 mi SW 17.3 mph 26.5 mph N/A   Clear
4:17 PM 78.8 °F 51.8 °F 39% 29.78 in 10.0 mi SW 20.7 mph 27.6 mph N/A   Clear
4:35 PM 78.8 °F 53.1 °F 41% 29.78 in 7.0 mi SW 19.6 mph 23.0 mph N/A   Clear
4:36 PM 78.8 °F 53.1 °F 41% 29.78 in 7.0 mi SW 19.6 mph 23.0 mph N/A   Clear
4:55 PM 77.9 °F 54.9 °F 45% 29.78 in 7.0 mi WSW 17.3 mph 28.8 mph N/A   Clear
4:56 PM 77.7 °F 54.9 °F 45% 29.78 in 7.0 mi WSW 15.0 mph 28.8 mph N/A   Clear
5:15 PM 78.1 °F 55.6 °F 46% 29.77 in 7.0 mi SW 16.1 mph 23.0 mph N/A   Clear
5:35 PM 77.7 °F 55.6 °F 46% 29.77 in 7.0 mi SW 17.3 mph 24.2 mph N/A   Clear
5:36 PM 77.7 °F 55.6 °F 46% 29.77 in 10.0 mi SW 17.3 mph 23.0 mph N/A   Clear
5:55 PM 77.0 °F 55.6 °F 47% 29.76 in 7.0 mi SW 16.1 mph 27.6 mph N/A   Clear
6:15 PM 76.6 °F 55.8 °F 48% 29.75 in 7.0 mi SW 17.3 mph 23.0 mph N/A   Clear
6:16 PM 76.6 °F 55.6 °F 48% 29.75 in 7.0 mi SW 18.4 mph 24.2 mph N/A   Clear
6:35 PM 76.1 °F 55.0 °F 48% 29.75 in 10.0 mi SW 19.6 mph 25.3 mph N/A   Clear
6:55 PM 75.6 °F 54.7 °F 48% 29.75 in 10.0 mi SW 16.1 mph 21.9 mph N/A   Clear
6:56 PM 75.6 °F 54.7 °F 48% 29.75 in 10.0 mi SW 16.1 mph 21.9 mph N/A   Clear
7:16 PM 75.2 °F 54.9 °F 49% 29.75 in 10.0 mi SW 12.7 mph 19.6 mph N/A   Clear
7:35 PM 74.8 °F 54.5 °F 49% 29.75 in 10.0 mi SW 11.5 mph 20.7 mph N/A   Clear
7:56 PM 73.8 °F 54.5 °F 51% 29.75 in 10.0 mi SW 15.0 mph - N/A   Clear
8:15 PM 72.7 °F 54.7 °F 53% 29.75 in 10.0 mi SW 10.4 mph 18.4 mph N/A   Clear
8:16 PM 72.7 °F 54.7 °F 53% 29.75 in 10.0 mi SW 11.5 mph 17.3 mph N/A   Clear
8:35 PM 71.4 °F 55.2 °F 57% 29.75 in 10.0 mi SW 11.5 mph - N/A   Clear
8:37 PM 71.4 °F 55.0 °F 56% 29.75 in 10.0 mi SW 13.8 mph - N/A   Clear
8:55 PM 70.7 °F 55.0 °F 58% 29.75 in 10.0 mi SW 10.4 mph - N/A   Clear
8:56 PM 70.5 °F 55.0 °F 58% 29.75 in 10.0 mi SW 10.4 mph - N/A   Clear
9:15 PM 69.4 °F 55.2 °F 60% 29.74 in 10.0 mi SSW 9.2 mph - N/A   Clear
9:17 PM 69.3 °F 55.2 °F 61% 29.74 in 10.0 mi SW 11.5 mph - N/A   Clear
9:35 PM 68.7 °F 55.4 °F 62% 29.74 in 10.0 mi SW 8.1 mph - N/A   Clear
9:55 PM 67.6 °F 55.4 °F 65% 29.75 in 10.0 mi SW 9.2 mph - N/A   Clear
10:15 PM 67.6 °F 55.6 °F 65% 29.76 in 10.0 mi SW 9.2 mph - N/A   Scattered Clouds
10:35 PM 67.1 °F 55.0 °F 65% 29.81 in 10.0 mi NW 11.5 mph 21.9 mph N/A   Mostly Cloudy
10:36 PM 66.9 °F 55.0 °F 66% 29.80 in 10.0 mi WNW 6.9 mph 21.9 mph N/A   Mostly Cloudy
10:55 PM 65.3 °F 55.4 °F 70% 29.81 in 10.0 mi Calm Calm - N/A   Mostly Cloudy
10:56 PM 65.3 °F 55.4 °F 70% 29.81 in 10.0 mi Calm Calm - N/A   Mostly Cloudy
11:15 PM 63.5 °F 55.4 °F 75% 29.80 in 10.0 mi South 3.5 mph - N/A   Scattered Clouds
11:35 PM 63.5 °F 55.2 °F 74% 29.79 in 10.0 mi Calm Calm - N/A   Scattered Clouds
11:36 PM 63.5 °F 55.2 °F 74% 29.79 in 10.0 mi Calm Calm - N/A   Scattered Clouds
11:55 PM 62.1 °F 55.8 °F 80% 29.79 in 10.0 mi Calm Calm - N/A   Mostly Cloudy
11:56 PM 62.1 °F 55.6 °F 79% 29.79 in 10.0 mi Calm Calm - N/A   Mostly Cloudy